User: anonymous   Login
Location: Poughquag
(41.6090°N, 73.6820°W)
Time: 12:09:41
(UTC-04:00)
Language:

Transit 2A - Orbit

View from above orbital plane
View from above orbital plane
View from above satellite
View from above satellite

Ground track
Ground track

The orbit data is extracted from the following two-line orbital elements,

1    45U 60007A   20292.78170244 -.00000033  00000-0  18679-4 0  9992
2    45  66.6953  55.8780 0261019 226.9477 130.9506 14.33690416140382
Epoch (UTC): 18 October 2020 18:45:39
Eccentricity: 0.0261019
inclination: 66.6953°
perigee height: 592 km
apogee height: 966 km
right ascension of ascending node: 55.8780°
argument of perigee: 226.9477°
revolutions per day: 14.33690416
mean anomaly at epoch: 130.9506°
orbit number at epoch: 14038

The dashed part of the orbit path shows where the satellite is in the earth's shadow,  

DLR